[[{"header":{"parameterUnit":"m.s-1","parameterCategory":1,"la1":30.2991,"la2":30.254,"lo1":-89.0895,"lo2":-89.0444,"dy":0.0017,"dx":0.0017,"nx":28,"ny":28,"refTime":"2023-11-13T09:00:00:Z","depth":0,"parameterNumber":2,"parameterNumberName":"U-component_of_WINDS"},"data":[0,0,0,0,0,0,0,0,0,0,0,0,0,0,0,0,0,0,0,0,0,0,0,0,0,0,0,0,0,0,0,0,0,0,0,0,0,0,0,0,0,0,0,0,0,0,0,0,0,0,0,0,0,0,0,0,0,0,-10.6003,-10.6003,0,-10.6025,-10.6025,-10.6025,-10.5766,-10.5759,-10.5752,-10.5745,-10.5767,-10.5774,-10.5781,0,0,0,0,0,0,0,0,0,0,0,0,0,-10.5737,-10.5743,-10.6003,-10.6003,-10.6003,-10.6025,-10.6025,-10.6025,-10.5767,-10.5758,-10.575,-10.5742,-10.5765,-10.5773,-10.5782,0,0,0,0,0,0,0,0,0,0,0,0,0,-10.5815,-10.5745,-10.6003,-10.5877,-10.5866,-10.6025,-10.6025,-10.6025,-10.5769,-10.5758,-10.5748,-10.5738,-10.5762,-10.5772,-10.5783,-10.6063,0,0,-10.5816,-10.5821,0,0,0,0,0,0,0,0,-10.5811,-10.5825,-10.5895,-10.5886,-10.5874,-10.5882,-10.5939,-10.6038,-10.5772,-10.5806,-10.5745,-10.5732,-10.5814,-10.582,-10.5847,-10.6064,-10.6064,-10.5817,-10.5823,-10.5828,-10.5831,0,0,0,0,0,0,0,-10.5806,-10.5823,-10.6011,-10.5897,-10.5884,-10.582,-10.5819,-10.5957,-10.5869,-10.5802,-10.5783,-10.5789,-10.5806,-10.5837,-10.5846,-10.6065,-10.5817,-10.5826,-10.5833,-10.5837,-10.6511,-10.6522,0,0,0,0,0,0,-10.5818,-10.582,-10.601,-10.6012,-10.5816,-10.5833,-10.5832,-10.589,-10.5867,-10.5853,-10.5799,-10.5777,-10.5824,-10.5833,-10.5845,-10.617,-10.5828,-10.5838,-10.5844,-10.65,-10.6514,-10.6526,0,0,0,0,0,0,-10.5813,-10.5837,-10.601,-10.5911,-10.5928,-10.5849,-10.5916,-10.5896,-10.5927,-10.5864,-10.5847,-10.5847,-10.5816,-10.583,-10.601,-10.6167,-10.5843,-10.5853,-10.6487,-10.6504,-10.652,-10.6823,0,0,0,0,0,0,-10.5807,-10.5837,-10.5942,-10.5915,-10.5934,-10.6175,-10.5925,-10.5904,-10.5946,-10.5919,-10.5905,-10.5892,-10.5809,-10.5996,-10.6021,-10.6176,-10.5861,-10.6472,-10.6495,-10.6515,-10.6798,-10.6848,-10.6891,0,0,0,0,0,-10.5798,-10.6027,-10.5949,-10.5973,-10.6064,-10.6185,-10.6195,-10.6094,-10.596,-10.6065,-10.6025,-10.5893,-10.6147,-10.6016,-10.6043,-10.6203,-10.6462,-10.6488,-10.6513,-10.6778,-10.6838,-10.689,0,0,0,0,0,0,-10.6073,-10.6021,-10.5934,-10.6161,-10.618,-10.6141,-10.627,-10.6162,-10.6219,-10.6191,-10.6063,-10.6062,-10.6263,-10.6251,-10.6107,-10.6473,-10.628,-10.6313,-10.6473,-10.653,-10.6575,-10.6572,-10.587,0,0,0,0,0,-10.6161,-10.6263,-10.6211,-10.6416,-10.643,-10.635,-10.6398,-10.6319,-10.6333,-10.6339,-10.6312,-10.6331,-10.6414,-10.6471,-10.6545,-10.6797,-10.6789,-10.692,-10.6967,-10.7005,-10.7033,-10.7165,-10.7222,-10.6611,-10.6611,-10.661,0,0,-10.6341,-10.6325,-10.6397,-10.6472,-10.6476,-10.6585,-10.6358,-10.6482,-10.6561,-10.6358,-10.6525,-10.6508,-10.652,-10.6737,-10.6831,-10.6733,-10.7201,-10.7038,-10.7069,-10.7076,-10.7197,-10.7255,-10.7306,-10.6628,-10.6625,-10.6622,0,0,-10.6725,-10.6725,-10.6895,-10.6905,-10.6916,-10.6861,-10.6903,-10.6881,-10.6861,-10.7028,-10.6878,-10.6971,-10.7118,-10.7132,-10.7159,-10.7553,-10.7433,-10.7581,-10.7821,-10.795,-10.7998,-10.804,-10.8179,-10.823,-10.761,-10.7611,-10.7611,0,-10.6948,-10.7106,-10.6996,-10.7131,-10.7167,-10.699,-10.7161,-10.7177,-10.7212,-10.7241,-10.7131,-10.7312,-10.7308,-10.7526,-10.7622,-10.7651,-10.7693,-10.758,-10.8,-10.8041,-10.8079,-10.821,-10.8262,-10.7628,-10.7626,-10.7624,-10.7623,0,-10.7378,-10.7491,-10.7627,-10.7665,-10.7718,-10.7871,-10.7784,-10.785,-10.7768,-10.7726,-10.7898,-10.7888,-10.7955,-10.8002,-10.7923,-10.821,-10.8148,-10.8023,-10.7826,-10.8157,-10.8277,-10.8327,-10.7654,-10.7647,-10.7642,-10.7638,0,0,-10.7932,-10.7911,-10.7962,-10.7977,-10.7978,-10.8062,-10.8208,-10.8275,-10.8334,-10.8365,-10.8483,-10.8613,-10.8496,-10.8527,-10.8448,-10.8563,-10.8874,-10.8422,-10.842,-10.8504,-10.9187,-10.928,-10.934,-10.8796,-10.8805,-10.8812,-10.9185,0,-10.8304,-10.855,-10.8457,-10.871,-10.8811,-10.8647,-10.8773,-10.8787,-10.8753,-10.8833,-10.8794,-10.8888,-10.8728,-10.8745,-10.8851,-10.8814,-10.9009,-10.8786,-10.8903,-10.8908,-10.8901,-10.9403,-10.9501,-10.9853,-10.9232,-10.924,-10.9246,0,-10.877,-10.8821,-10.9084,-10.9068,-10.9107,-10.9222,-10.9276,-10.9357,-10.937,-10.9336,-10.9373,-10.927,-10.9411,-10.9219,-10.9411,-10.9261,-10.9304,-10.9294,-10.9305,-10.9309,-10.9095,-10.9418,-10.9963,-11.0016,-10.9319,-10.9313,-10.9308,0,-10.9145,-10.928,-10.9454,-10.9473,-10.9459,-10.9543,-10.9542,-10.9544,-10.9591,-10.964,-10.9668,-10.9733,-10.9768,-10.9821,-10.9738,-10.9606,-10.9942,-10.9743,-10.9917,-10.9919,-10.9991,-10.9988,-11.0549,-11.0026,-11.0025,-11.0024,-11.0023,0,-10.9568,-10.9735,-10.9622,-10.973,-10.9912,-10.9805,-10.9988,-10.9968,-10.9973,-11.0073,-10.9936,-11.0033,-10.9919,-11.0005,-10.9942,-11.011,-11.0128,-11.0104,-11.0084,-11.0114,-11.0117,-11.0138,-11.011,-11.0038,-11.0035,-11.0032,-11.003,0,-11.0015,-10.9947,-11.0126,-11.0099,-11.0097,-11.0232,-11.0208,-11.0307,-11.0263,-11.0392,-11.0416,-11.0348,-11.0443,-11.0367,-11.0459,-11.0417,-11.0639,-11.0586,-11.0635,-11.0619,-11.0796,-11.078,-11.1388,-11.1461,-11.0895,-11.09,-11.0905,0,-11.0288,-11.0412,-11.04,-11.0457,-11.0464,-11.0559,-11.0606,-11.0507,-11.0562,-11.0588,-11.0683,-11.0767,-11.0827,-11.0987,-11.0945,-11.1016,-11.0962,-11.1171,-11.0971,-11.0998,-11.0962,-11.0954,-11.0965,-11.121,-11.1216,-11.1222,-11.1226,0,-11.0778,-11.0739,-11.0812,-11.0876,-11.0937,-11.0982,-11.1015,-11.1071,-11.0969,-11.1038,-11.1134,-11.1182,-11.1277,-11.1361,-11.1418,-11.1415,-11.1305,-11.129,-11.1333,-11.1363,-11.1385,-11.1373,-11.0741,-11.1275,-11.1271,-11.1267,-11.1264,-11.1262,-11.1144,-11.1247,-11.1255,-11.1342,-11.1357,-11.1393,-11.1483,-11.1453,-11.1531,-11.16,-11.1538,-11.1653,-11.1664,-11.1729,-11.1741,-11.1829,-11.1742,-11.1806,-11.1822,-11.1838,-11.1862,-11.1375,-11.184,-11.1838,-11.1837,-11.1835,-11.1834,0,-11.1624,-11.1622,-11.1704,-11.1756,-11.1825,-11.1717,-11.175,-11.1814,-11.1917,-11.1938,-11.2001,-11.2112,-11.2194,-11.2161,-11.2233,-11.231,-11.2261,-11.2332,-11.2323,-11.2324,-11.1937,-11.1891,-11.237,-11.237,-11.237,-11.237,-11.237,-11.237,-11.1882,-11.2051,-11.2013,-11.2189,-11.2184,-11.2296,-11.2324,-11.2356,-11.2372,-11.2502,-11.2569,-11.2548,-11.2547,-11.2618,-11.2688,-11.2676,-11.2708,-11.2797,-11.2767,-11.2405,-11.2352,-11.2301,-11.2257,-11.2806,-11.2806,-11.3146,-11.3149,-11.3152]},{"header":{"parameterUnit":"m.s-1","parameterCategory":1,"la1":30.2991,"la2":30.254,"lo1":-89.0895,"lo2":-89.0444,"dy":0.0017,"dx":0.0017,"nx":28,"ny":28,"refTime":"2023-11-13T09:00:00:Z","depth":0,"parameterNumber":3,"parameterNumberName":"V-component_of_WINDS"},"data":[0,0,0,0,0,0,0,0,0,0,0,0,0,0,0,0,0,0,0,0,0,0,0,0,0,0,0,0,0,0,0,0,0,0,0,0,0,0,0,0,0,0,0,0,0,0,0,0,0,0,0,0,0,0,0,0,0,0,-0.3456,-0.3455,0,-0.3399,-0.3398,-0.3397,-0.3396,-0.3397,-0.3397,-0.3398,-0.3338,-0.3336,-0.3334,0,0,0,0,0,0,0,0,0,0,0,0,0,-0.356,-0.3558,-0.3456,-0.3455,-0.3454,-0.3399,-0.3398,-0.3397,-0.3396,-0.3397,-0.3397,-0.3398,-0.3339,-0.3336,-0.3334,0,0,0,0,0,0,0,0,0,0,0,0,0,-0.351,-0.3557,-0.3456,-0.3447,-0.3445,-0.3399,-0.3398,-0.3397,-0.3396,-0.3397,-0.3398,-0.3399,-0.334,-0.3337,-0.3333,-0.3292,0,0,-0.3323,-0.3322,0,0,0,0,0,0,0,0,-0.3513,-0.3506,-0.3449,-0.3447,-0.3446,-0.3405,-0.3413,-0.3362,-0.3395,-0.3414,-0.3398,-0.3399,-0.336,-0.3355,-0.3342,-0.3289,-0.3286,-0.3323,-0.3321,-0.3319,-0.3318,0,0,0,0,0,0,0,-0.3516,-0.3508,-0.3433,-0.3448,-0.3446,-0.3444,-0.3439,-0.3403,-0.3382,-0.3413,-0.3413,-0.3406,-0.3359,-0.3345,-0.334,-0.3285,-0.3323,-0.332,-0.3318,-0.3316,-0.3192,-0.319,0,0,0,0,0,0,-0.3522,-0.3511,-0.3435,-0.3431,-0.3482,-0.3442,-0.3435,-0.3417,-0.3382,-0.3378,-0.3405,-0.3406,-0.335,-0.3344,-0.3338,-0.3285,-0.3319,-0.3316,-0.3314,-0.3193,-0.3191,-0.319,0,0,0,0,0,0,-0.3524,-0.3515,-0.3437,-0.3471,-0.3461,-0.3439,-0.3419,-0.3416,-0.3402,-0.3376,-0.3372,-0.3395,-0.3351,-0.3343,-0.3302,-0.3283,-0.3315,-0.3312,-0.3194,-0.3192,-0.3191,-0.3179,0,0,0,0,0,0,-0.3527,-0.3516,-0.3501,-0.3471,-0.3459,-0.3403,-0.3418,-0.3414,-0.3396,-0.3397,-0.3366,-0.3362,-0.3351,-0.3307,-0.3299,-0.3279,-0.3309,-0.3196,-0.3194,-0.3191,-0.3181,-0.3176,-0.3173,0,0,0,0,0,-0.3531,-0.35,-0.35,-0.3491,-0.344,-0.3402,-0.3396,-0.3384,-0.3394,-0.3378,-0.3361,-0.3363,-0.3286,-0.3303,-0.3294,-0.3272,-0.3197,-0.3194,-0.3191,-0.3182,-0.3177,-0.3173,0,0,0,0,0,0,-0.3528,-0.3496,-0.3495,-0.3454,-0.3431,-0.3402,-0.3381,-0.338,-0.3353,-0.3355,-0.3342,-0.3335,-0.3294,-0.3279,-0.3299,-0.3228,-0.3243,-0.3238,-0.3239,-0.3234,-0.323,-0.3234,-0.3306,0,0,0,0,0,-0.3523,-0.3495,-0.3469,-0.3435,-0.3423,-0.3404,-0.3387,-0.3381,-0.3356,-0.3346,-0.3326,-0.3301,-0.3271,-0.3252,-0.3224,-0.3179,-0.317,-0.3159,-0.3155,-0.3152,-0.3147,-0.3119,-0.3113,-0.318,-0.318,-0.318,0,0,-0.3511,-0.349,-0.3474,-0.3433,-0.3415,-0.3385,-0.3396,-0.3365,-0.3342,-0.3341,-0.3301,-0.3286,-0.3257,-0.3213,-0.3193,-0.32,-0.3127,-0.3148,-0.3146,-0.3143,-0.3116,-0.3109,-0.3104,-0.3178,-0.3179,-0.3179,0,0,-0.3475,-0.3457,-0.3426,-0.3406,-0.3377,-0.3365,-0.3357,-0.3328,-0.3317,-0.3277,-0.3274,-0.3247,-0.3197,-0.3175,-0.3158,-0.3111,-0.311,-0.3102,-0.3081,-0.3054,-0.3049,-0.3044,-0.3025,-0.3018,-0.3098,-0.3098,-0.3098,0,-0.3464,-0.3421,-0.341,-0.3378,-0.3359,-0.3356,-0.3323,-0.3304,-0.3267,-0.3254,-0.3262,-0.3197,-0.3178,-0.3127,-0.3116,-0.3102,-0.3092,-0.3105,-0.3051,-0.3046,-0.3041,-0.3023,-0.3016,-0.3097,-0.3097,-0.3097,-0.3097,0,-0.3407,-0.3377,-0.3355,-0.3319,-0.3297,-0.3265,-0.3248,-0.3228,-0.3222,-0.3208,-0.3166,-0.3142,-0.3107,-0.3095,-0.309,-0.3043,-0.3048,-0.3054,-0.3068,-0.3034,-0.3016,-0.3009,-0.3095,-0.3096,-0.3096,-0.3096,0,0,-0.3368,-0.3325,-0.3317,-0.3299,-0.3266,-0.3242,-0.3208,-0.3174,-0.3156,-0.313,-0.31,-0.3057,-0.3061,-0.3041,-0.3033,-0.301,-0.297,-0.3018,-0.3017,-0.3008,-0.2914,-0.2909,-0.2901,-0.297,-0.2969,-0.2967,-0.2916,0,-0.3327,-0.3268,-0.3256,-0.3204,-0.3174,-0.317,-0.314,-0.3116,-0.3101,-0.3073,-0.3057,-0.3025,-0.3034,-0.3022,-0.2999,-0.298,-0.2951,-0.2984,-0.294,-0.2939,-0.2946,-0.2892,-0.2887,-0.284,-0.2909,-0.2908,-0.2907,0,-0.3271,-0.3242,-0.3188,-0.3156,-0.3143,-0.3117,-0.3083,-0.3057,-0.3028,-0.3019,-0.2995,-0.299,-0.2953,-0.2969,-0.2917,-0.294,-0.2921,-0.2909,-0.2907,-0.2901,-0.292,-0.2883,-0.2824,-0.2816,-0.2897,-0.2897,-0.2898,0,-0.3244,-0.3193,-0.3153,-0.3138,-0.3101,-0.3082,-0.3065,-0.3038,-0.3017,-0.2987,-0.2973,-0.294,-0.2921,-0.2895,-0.2879,-0.2893,-0.2827,-0.2843,-0.2817,-0.2817,-0.2802,-0.2803,-0.2737,-0.2793,-0.2793,-0.2793,-0.2793,0,-0.3198,-0.3164,-0.314,-0.3115,-0.3076,-0.3062,-0.3024,-0.3007,-0.2982,-0.2953,-0.2947,-0.2919,-0.2902,-0.2871,-0.2858,-0.2815,-0.2808,-0.2798,-0.2794,-0.2797,-0.2798,-0.2783,-0.2785,-0.2791,-0.2792,-0.2792,-0.2793,0,-0.3162,-0.3145,-0.31,-0.3068,-0.3059,-0.3031,-0.3003,-0.2978,-0.2963,-0.2925,-0.2916,-0.2892,-0.2855,-0.2837,-0.2792,-0.2783,-0.2733,-0.2734,-0.2743,-0.2741,-0.2715,-0.2717,-0.2636,-0.2624,-0.269,-0.2689,-0.2689,0,-0.3133,-0.3106,-0.3071,-0.3051,-0.3033,-0.3001,-0.298,-0.2965,-0.2942,-0.2906,-0.2884,-0.2847,-0.2817,-0.2757,-0.2735,-0.27,-0.2697,-0.2672,-0.2692,-0.2694,-0.2694,-0.2695,-0.2691,-0.2668,-0.2667,-0.2666,-0.2666,0,-0.3082,-0.3074,-0.3044,-0.3009,-0.2983,-0.2956,-0.2928,-0.2912,-0.2892,-0.2867,-0.2829,-0.2805,-0.2758,-0.272,-0.2682,-0.2664,-0.266,-0.266,-0.2651,-0.2653,-0.2658,-0.2652,-0.2731,-0.2662,-0.2662,-0.2662,-0.2663,-0.2663,-0.3046,-0.3021,-0.2992,-0.2957,-0.2935,-0.2909,-0.2883,-0.2864,-0.2832,-0.2792,-0.2785,-0.2744,-0.2713,-0.2663,-0.2643,-0.2609,-0.2615,-0.2604,-0.26,-0.2597,-0.2594,-0.2665,-0.2603,-0.2603,-0.2603,-0.2603,-0.2603,0,-0.2993,-0.2973,-0.2941,-0.2903,-0.2875,-0.2875,-0.2844,-0.282,-0.2784,-0.2756,-0.2726,-0.2681,-0.2643,-0.2618,-0.258,-0.2558,-0.2555,-0.2548,-0.2548,-0.2543,-0.2593,-0.2603,-0.2551,-0.2551,-0.2551,-0.2551,-0.2551,-0.2551,-0.2961,-0.2918,-0.2907,-0.2852,-0.2832,-0.2792,-0.2774,-0.2749,-0.2726,-0.2676,-0.2645,-0.2629,-0.2601,-0.256,-0.2525,-0.2519,-0.2504,-0.2496,-0.2489,-0.2535,-0.2541,-0.2546,-0.2555,-0.2494,-0.2494,-0.2442,-0.2442,-0.2442]}]]